Location: Kershaw
(34.5481°N, 80.5823°W)
Time: 21:42:39
(UTC+00:00)

Transit 4A - Pass Details

Date: 11 October 2022
Orbit: 871 x 972 km, 66.8° (Epoch: 08 December)

Event Time Altitude Azimuth Distance (km) Brightness Sun altitude
Rises 01:04:30 0° 203° (SSW) 3,612 11.1 -27.6°
Reaches altitude 10° 01:07:03 10° 203° (SSW) 2,658 10.4 -28.1°
Enters shadow 01:12:38 73° 193° (SSW) 970 7.8 -29.2°
